Aérodrome :
LOGIN :

S'inscrire | Disclaimer

   EN    FR    IT 

 










Légende :    VFR   VFR Marginal   IFR   IFR Intensif   IFR Très Intensif
Visi : 
Plafond : 
>= 8 km
>= 3000ft
5 à 8 km
1000 à 3000 ft
1500m à 5 km
500 à 1000 ft
800 à 1500m
200 à 500 ft
< 800m
< 200 ft
Symboles :   Orages  Brouillard  Fortes neiges  Fortes précipitations  Vent > 20 kt
SIGMETs :   Divers  Orages  Givrage  Turbulence  Onde Orograph.  Cendres Volcan.







- Altitude de l'aérodrome : 143 ft
- Code IATA : VDP


EKVD - Kolding Vamdrup

DERNIER METAR :
  • 221620Z AUTO 10017KT 080V140 //// ///////// 14/02 Q1017

METARs EXPIRÉS :
  • 221550Z AUTO 11015KT //// ///////// 15/04 Q1017
  • 221520Z AUTO 10016KT //// ///////// 16/04 Q1017
  • 221450Z AUTO 10016KT //// ///////// 16/02 Q1017
  • 221420Z AUTO 12014KT //// ///////// 17/M01 Q1017
  • 221350Z 11015KT CAVOK 17/02 Q1017

Prévision TAF périmée.
Pas de NOTAMs connus pour ce terrain.



MET'MAP, la Météo Aéronautique d'un coup d'oeil ! - Copyright ORBIFLY Décembre 2007 - Disclaimer

ORBIFLY MET'MAP TEAM :

Programmation & Développement : Alexandra Zaïnal
Conception & Développement : Baudouin d'Aumeries
Co-Programmation & Développement : Marc-Olivier Méhu
Soutien technique & logistique : Manuel Goepfert

Contact : metmap@orbifly.com




SOURCES & CREDITS :

   NOAA